Torna al catalogo

TITAN 3C TRANSTAGE DEB

AttivoMEO
NORAD 38698·DEBRIS·🇺🇸 United States

Lanciato Sep 26, 1968 da Cape Canaveral Space Force Station

Loading…

Prossimi Passaggi (prossime 24 ore)

TLE

AggiornatoSource: Space-Track

Epoca: Sep 14, 2026, 07:48 UTC

1 38698U 68081Y   26257.32542616 -.00000128  00000-0  00000-0 0  9990
2 38698   3.7373  69.9185 0216517 181.0878 179.2152  1.04403343 86702

Traccia TITAN 3C TRANSTAGE DEB in tempo reale con AllMySat

Download on the App Store